Regional Weather Roundup
Issued by NWS Midland/Odessa, TX

Skip options and go directly to product.
Home | Oldest Version | Previous Version | Current Version | All | Text Only | Save Text | Print | Product List | Glossary Off

Skip product version selection by date and time.   

220
ASUS44 KMAF 272110
RWRMAF
MIDLAND AREA WEATHER ROUNDUP
NATIONAL WEATHER SERVICE MIDLAND TX
300 PM CST FRI FEB 27 2015

...IN SOUTHWEST TEXAS AND SOUTHEAST NEW MEXICO...

CITY           SKY/WX    TMP DP  RH WIND       PRES   REMARKS
ALPINE         CLOUDY    28  27  96 NE5       30.12F WCI  22
ANDREWS        FLURRIES  20  16  84 MISG      30.21F
ARTESIA        CLOUDY    23  21  93 SE13      30.16F WCI  11
BIG SPRING     CLOUDY    21  17  84 NE13      30.29S WCI   8
CARLSBAD       CLOUDY    25  18  74 SE10      30.16F WCI  15
DRYDEN           N/A     35  28  75 E14       30.16F WCI  26
FORT STOCKTON  CLOUDY    27  26  96 NE13      30.17F FOG     WCI  16
GUAD PASS      FOG       20  17  88 NE25G32   29.97F VSB 3/4 WCI   2
HOBBS          CLOUDY    19  18  93 E10       30.18F WCI   8
MARFA          CLOUDY    32  27  80 NE15      30.03F WCI  22
MIDLAND AIRPK  MIX PCPN  22  18  85 E12       30.24F WCI  11
MIDLAND INTL   CLOUDY    21  17  84 E15       30.22F FOG     WCI   8
ODESSA         CLOUDY    21  17  84 E12       30.22F WCI   9
PECOS          CLOUDY    25  23  92 NE9       30.21F FOG     WCI  16
PRESIDIO       FAIR      49  30  48 NE20      30.00F
SEMINOLE       FLURRIES  20  15  82 E12       30.21F WCI   8
SNYDER         CLOUDY    18  13  79 NE10      30.30F WCI   7
WINK           CLOUDY    25  18  74 E13       30.19F WCI  14
$$
...OTHER STATIONS IN TEXAS...

CITY           SKY/WX    TMP DP  RH WIND       PRES   REMARKS
ABILENE        CLOUDY    21  17  84 NE8       30.34F FOG     WCI  11
AMARILLO       LGT SNOW  15   9  76 SE9       30.22F WCI   3
AUSTIN         CLOUDY    36  25  64 N14       30.32F WCI  27
BROWNSVILLE    CLOUDY    64  55  72 NE10      30.13F
CORPUS CHRISTI CLOUDY    53  44  71 E21       30.19F
DALLAS FTW     SNOW      26  23  88 NE9       30.42S VSB 1/2 WCI  17
DEL RIO        CLOUDY    38  31  76 E7        30.24F WCI  33
EL PASO        MOSUNNY   44  24  45 E12       29.94F WCI  38
HOUSTON INT    CLOUDY    43  32  65 NE6       30.35F WCI  39
LUBBOCK        LGT SNOW  17  11  77 E9        30.22F WCI   6
SAN ANGELO     CLOUDY    26  24  92 NE9       30.27F WCI  17
SAN ANTONIO    LGT RAIN  33  30  88 NE14      30.28F FOG     WCI  23
WACO           CLOUDY    30  24  78 NE9       30.38F WCI  22
WICHITA FALLS  NOT AVBL
$$
...OTHER LOCATIONS IN NEW MEXICO...

CITY           SKY/WX    TMP DP  RH WIND       PRES   REMARKS
ALAMAGORDO     PTSUNNY   41  25  52 S12       29.96F WCI  34
ALBUQUERQUE    FLURRIES  27  22  81 N6        29.91F WCI  20
CANNON AFB     FLURRIES  14   8  79 SE13      30.13F WCI  -1
CLOVIS         CLOUDY    12   7  79 SE12      30.14F WCI  -2
HOLLOMAN AFB   PTSUNNY   41  24  50 SE12      29.94F WCI  35
ROSWELL        CLOUDY    22  17  81 SE14      30.14F WCI   9
RUIDOSO        FOG       18  16  93 SE8       29.94F VSB<1/4 WCI   7
SANTA FE       LGT SNOW  20  12  71 SE18      29.89F WCI   5
TRUTH OR CONSE MOSUNNY   46  28  49 SE10      29.87F
TUCUMCARI      FLURRIES  17  10  74 S13       30.13F WCI   4
$$

USA.gov is the U.S. government's official web portal to all federal, state and local government web resources and services.